Flag for Germany Weather past 2 weeks in Vreden, North Rhine-Westphalia, Germany

Now
50 °F

Overcast.


Feels Like: 49 °F
Forecast: 49 / 60 °F
Wind: 5 mph from South

Location: Twenthe

Current Time: Oct 26, 2014 at 8:25:09 AM

Latest Report: Oct 26, 2014 at 7:00 AM


Visibility: 6 mi

Pressure: 30.22 "Hg

Humidity: 92%

Dew point: 48 °F

Location of VredenLocation

Historic Weather in Vreden — Graph

°F

Vreden temperature yesterday

Maximum temperature yesterday: 57 °F (at 3:00 PM)
Minimum temperature yesterday: 49 °F (at 11:00 PM)
Average temperature yesterday: 54 °F

Past Weeks' High & Low Weather Summary

 TemperatureHumidityPressure
High72 °F (Oct 19, 2:00 PM)100% (Oct 11, 9:00 AM)30.22 "Hg (Oct 11, 9:00 AM)
Low43 °F (Oct 23, 2:00 AM)65% (Oct 14, 12:00 PM)29.41 "Hg (Oct 21, 4:00 PM)
Average56 °F86%29.90 "Hg
* Reported Oct 11 8:00 AM — Oct 26 7:00 AM, Vreden, Weather by CustomWeather, © 2014

Note: Actual official high and low records may vary slightly from our data, if they occured in-between our weather recording intervals... More about our weather records

Advertising

Vreden weather history for previous 24 hours

 ConditionsComfort  
Time TempWeatherWind HumidityBarometerVisibility
7:00 AM
Oct 26
50 °FOvercast.5 mph92%30.22 "Hg6 mi
6:00 AM49 °FOvercast.3 mph90%30.21 "Hg8 mi
5:00 AM49 °FOvercast.3 mph88%30.20 "Hg9 mi
4:00 AM49 °FOvercast.3 mph88%30.21 "Hg9 mi
3:00 AM48 °FPassing clouds.3 mph88%30.20 "Hg10 mi
2:00 AM49 °FClear.3 mph87%30.20 "Hg14 mi
2:00 AM49 °FPassing clouds.2 mph86%30.20 "Hg14 mi
1:00 AM51 °FOvercast.3 mph84%30.19 "Hg17 mi
12:00 AM51 °FOvercast.3 mph86%30.19 "Hg16 mi
11:00 PM
Oct 25
49 °FPassing clouds.3 mph90%30.17 "Hg14 mi
10:00 PM52 °FOvercast.3 mph86%30.16 "Hg12 mi
9:00 PM56 °FFog.5 mph91%30.13 "Hg4 mi
8:00 PM56 °FFog.3 mph95%30.13 "Hg3 mi
7:00 PM56 °FFog.5 mph95%30.11 "Hg6 mi
6:00 PM56 °FLow clouds.5 mph94%30.10 "Hg6 mi
5:00 PM57 °FFog.3 mph91%30.09 "Hg4 mi
4:00 PM57 °FFog.3 mph90%30.09 "Hg3 mi
3:00 PM57 °FFog.2 mph91%30.08 "Hg3 mi
2:00 PM57 °FLow clouds.3 mph93%30.08 "Hg3 mi
1:00 PM56 °FLow clouds.3 mph95%30.08 "Hg2 mi
12:00 PM55 °FFog.5 mph96%30.07 "Hg2 mi
11:00 AM54 °FFog.3 mph99%30.06 "Hg1 mi
10:00 AM53 °FLow clouds.3 mph100%30.05 "Hg1 mi
9:00 AM53 °FLow clouds.5 mph99%30.03 "Hg1 mi
8:00 AM52 °FLow clouds.5 mph100%30.01 "Hg1 mi
Weather by CustomWeather, © 2014

See weather overviewHow to use our weather pages